INMARSAT 5-F4

Last updated on Wed Oct 29 2025 00:02:49 GMT+0000 (Coordinated Universal Time)

1 42698U 17025A 25301.48332269 .00000086 00000+0 00000+0 0 9994 2 42698 0.0136 252.2775 0000382 277.4000 97.8976 1.00270353 30958
UTC large
Height (km)
Speed (km/s)
/
Latitude / Longitude
Inclination (degrees)
Orbital Period (minutes)
Azimuth
Elevation
Range (km)
Doppler Factor

Next 0 passes for location: London (51.5072 / 0.1276)

Sorry there are no passes over London.